Dubuque, IA

9:23 AM CDT on August 25, 2019 (GMT -0500)
Dubuque Regional

Weather History for KDBQ - June, 2019

Change the Weather History Date:

Monday, June 3, 2019

  Actual Average Record
Temperature  
Mean Temperature 62 °F -  
Max Temperature 73 °F - 93 °F (1895)
Min Temperature 50 °F - 39 °F (1969)
Degree Days  
Heating Degree Days 4    
Growing Degree Days 12 (Base 50)    
Moisture  
Dew Point 51 °F    
Average Humidity 63    
Maximum Humidity 86    
Minimum Humidity 48    
Precipitation  
Precipitation 0.00 in - 2.92 in (2002)
Sea Level Pressure  
Sea Level Pressure 30.06 in    
Wind  
Wind Speed 7 mph ()    
Max Wind Speed 10 mph    
Max Gust Speed -    
Visibility 10.0 miles    
Events      
T = Trace of Precipitation, MM = Missing Value Source: Averaged Metar Reports

Daily Weather History Graph

Daily Weather History Graph

Search for Another Location

Airport or City:

Astronomy

Jun. 03, 2019 Rise Set
Actual Time 5:27 AM CDT 8:34 PM CDT
Civil Twilight 4:53 AM CDT 9:08 PM CDT
Nautical Twilight 4:09 AM CDT 9:52 PM CDT
Astronomical Twilight 3:17 AM CDT 10:44 PM CDT
Moon 5:49 AM CDT (6/3) 8:59 PM CDT (6/3)
Length of Visible Light 16h 15m
Length of Day
15h 06m
New Moon, 0% of the Moon is Illuminated
Jun 3
New Moon
Jun 10
First Quarter
Jun 17
Full
Jun 25
Last Quarter
Jul 2
New

Hourly Weather History & Observations

Time (CDT) Temp. Dew Point Humidity Pressure Visibility Wind Dir Wind Speed Gust Speed Precip Events Conditions
12:53 AM - - N/A% - - North - - N/A   Unknown
1:53 AM - - N/A% - - North - - N/A   Unknown
2:53 AM - - N/A% - - North - - N/A   Unknown
3:53 AM - - N/A% - - North - - N/A   Unknown
4:53 AM - - N/A% - - North - - N/A   Unknown
5:53 AM 50.0 °F 46.0 °F 86% 30.05 in 10.0 mi East 6.9 mph - N/A   Clear
6:53 AM 50.0 °F 45.0 °F 83% 30.07 in 10.0 mi ESE 6.9 mph - N/A   Clear
7:53 AM 52.0 °F 43.0 °F 71% 30.09 in 10.0 mi SE 9.2 mph - N/A   Clear
8:53 AM 54.0 °F 43.0 °F 66% 30.10 in 10.0 mi SE 9.2 mph - N/A   Clear
9:53 AM 57.0 °F 45.0 °F 64% 30.09 in 10.0 mi SE 6.9 mph - N/A   Clear
10:53 AM 61.0 °F 46.0 °F 58% 30.11 in 10.0 mi East 4.6 mph - N/A   Clear
11:53 AM 66.0 °F 50.0 °F 56% 30.12 in 10.0 mi South 5.8 mph - N/A   Clear
12:53 PM 70.0 °F 51.1 °F 51% 30.11 in 10.0 mi Variable 6.9 mph - N/A   Clear
1:53 PM 70.0 °F 52.0 °F 53% 30.09 in 10.0 mi Variable 5.8 mph - N/A   Clear
2:53 PM 72.0 °F 52.0 °F 49% 30.08 in 10.0 mi SSE 6.9 mph - N/A   Clear
3:53 PM 73.0 °F 52.0 °F 48% 30.07 in 10.0 mi SSE 6.9 mph - N/A   Clear
4:53 PM 71.1 °F 55.0 °F 57% 30.05 in 10.0 mi East 10.4 mph - N/A   Clear
5:53 PM 71.1 °F 54.0 °F 55% 30.03 in 10.0 mi SE 9.2 mph - N/A   Clear
6:53 PM 68.0 °F 54.0 °F 61% 30.02 in 10.0 mi SSE 10.4 mph - N/A   Overcast
7:53 PM 68.0 °F 52.0 °F 56% 30.01 in 10.0 mi SE 10.4 mph - N/A   Mostly Cloudy
8:53 PM 66.9 °F 53.1 °F 61% 30.00 in 10.0 mi SSE 8.1 mph - N/A   Partly Cloudy
9:53 PM 64.9 °F 55.0 °F 70% 30.02 in 10.0 mi South 6.9 mph - N/A   Mostly Cloudy
10:53 PM 64.9 °F 55.9 °F 73% 30.02 in 10.0 mi SSE 9.2 mph - 0.00 in   Overcast
11:53 PM 64.0 °F 55.9 °F 75% 30.01 in 10.0 mi SSE 9.2 mph - N/A   Mostly Cloudy